Other Public Products
Issued by NWS Grand Forks, ND

Home | Current Version | Previous Version | Graphics & Text | Print | Product List | Glossary On
Versions: 1 2 3 4 5 6 7 8 9 10 11 12 13 14 15 16 17 18 19 20 21 22 23 24 25 26 27 28 29 30 31 32 33 34 35 36 37 38 39 40 41 42 43 44 45 46 47 48 49 50
000
FPUS83 KFGF 011631
OPUFGF
PRAIRIE TO PINES WEATHER ROUNDUP
NATIONAL WEATHER SERVICE EASTERN NORTH DAKOTA/GRAND FORKS ND
1100 AM CDT SAT OCT 01 2016

 **SATELLITE DATA USED TO AUGMENT SKY COVER AT AUTOMATED STATIONS**
 *****  WEATHER ACROSS EASTERN NORTH DAKOTA  *****

CITY           SKY/WX    TMP DP  RH WIND       PRES   REMARKS
GRAND FORKS    CLOUDY    58  50  75 S7        30.14F
GRAND FORKS AF MOSUNNY   59  52  75 SE8       30.14S
GRAND CITY NWS   N/A     59 N/A N/A S6          N/A
BUXTON           N/A     64  61  91 SE6         N/A
DEVILS LAKE    MOSUNNY   61  51  70 SE13      30.10S
FARGO          CLOUDY    61  52  72 SE8       30.14F
WAHPETON ARPT  MOSUNNY   61  50  67 SE9       30.16S
$$

 *****  WEATHER ACROSS CENTRAL AND WESTERN NORTH DAKOTA  *****

CITY           SKY/WX    TMP DP  RH WIND       PRES   REMARKS
JAMESTOWN      MOSUNNY   62  52  69 S12       30.10S
BISMARCK       SUNNY     63  48  58 SE12      30.03S
MINOT          SUNNY     61  49  64 SE9       30.00F
MINOT AFB      SUNNY     61  49  65 SE10      30.00S
GARRISON         N/A     63  48  58 SE7       30.00F
WILLISTON      SUNNY     60  49  66 CALM      29.98S
DICKINSON      SUNNY     61  49  64 VRB3      29.97S
HETTINGER      SUNNY     63  49  60 SE5       30.00S
$$

 *****  OTHER OBSERVATIONS NORTHEAST NORTH DAKOTA  *****

CITY           SKY/WX    TMP DP  RH WIND       PRES   REMARKS
WALHALLA       FAIR      59  55  88 SE8       30.13F
LANGDON        FAIR      63  52  67 SE13      30.12F
CAVALIER       FAIR      59  52  77 SE6       30.14S
GRAFTON        FAIR      59  54  82 SE8       30.16S
CANDO          FAIR      64  52  63 SE13G18   30.10F
FORT TOTTEN      N/A     62  52  69 S12       29.95S
ROLLA            N/A     64  48  55 S13G23    30.08F
RUGBY          FAIR      64  48  55 SE12      30.04F
 ***** THE ABOVE OBSERVATIONS ARE NON NWS ARE NOT QUALITY
        CONTROLLED AND MAY MIS-REPORT RAIN FOR SNOW...
$$

 *****  OTHER OBSERVATIONS SOUTHEAST NORTH DAKOTA *****

CITY           SKY/WX    TMP DP  RH WIND       PRES   REMARKS
COOPERSTOWN    FAIR      61  52  72 SE9       30.13S
VALLEY CITY    FAIR      63  55  77 S9        30.14S
OAKES          NOT AVBL
GWINNER        FAIR      64  54  68 SE8       30.12F
SHEYENNE NWR     N/A     58  51  78 SE7       29.95S
BUFFALO          N/A     65  47  50 S9          N/A
WYNDMERE         N/A     61  54  77 SE6         N/A
 ***** THE ABOVE OBSERVATIONS ARE NON NWS ARE NOT QUALITY
       CONTROLLED AND MAY MIS-REPORT RAIN FOR SNOW...
$$

  *****  WEATHER ACROSS NORTHERN MINNESOTA  *****

CITY           SKY/WX    TMP DP  RH WIND       PRES   REMARKS
FLAG ISLAND    CLOUDY    55  50  82 S5        30.19S
WARROAD        MOSUNNY   55  52  88 E3        30.20S
ROSEAU         PTSUNNY   57  52  82 CALM      30.18F
HALLOCK        SUNNY     63  54  72 S12       30.15F
THF RVR FALLS  CLOUDY    57  51  80 E3        30.19S
HALSTAD          N/A     63  52  67 S9          N/A
FOSSTON        SUNNY     66  54  63 CALM      30.17F
BAUDETTE       MOSUNNY   53  49  86 SE3       30.21F
WASKISH        CLOUDY    52  52 100 E3        30.20F FOG
CROOKSTON      CLOUDY    63  54  72 S6        30.16F
$$
  *****  WEATHER ACROSS CENTRAL AND WEST MINNESOTA  *****

CITY           SKY/WX    TMP DP  RH WIND       PRES   REMARKS
BEMIDJI        CLOUDY    51  51 100 SE6       30.21S FOG
PARK RAPIDS    CLOUDY    53  50  89 SE8       30.20S
WADENA         CLOUDY    54  52  94 E3        30.19S FOG
DETROIT LAKES  CLOUDY    54  52  94 SE10      30.19S
MOORHEAD       MOSUNNY   63  54  72 SE9       30.15F
FERGUS FALLS   SUNNY     61  54  77 S7        30.19S
ELBOW LAKE     FAIR      61  54  78 SE7       30.17F
MORRIS MN      SUNNY     63  54  72 SE7       30.15F
STAPLES        PTSUNNY   55  52  88 E3        30.19F
WHEATON        SUNNY     63  55  77 SE9       30.17F
$$
  *****  WEATHER ELSEWHERE ACROSS MINNESOTA  *****

CITY           SKY/WX    TMP DP  RH WIND       PRES   REMARKS
DULUTH         CLOUDY    59  52  77 E5        30.22S
INTRNTL FALLS  MOSUNNY   59  50  72 SE7       30.21F
ELY            PTSUNNY   61  48  63 CALM      30.23F
CLOQUET        CLOUDY    61  52  72 NE8       30.21F
BRAINERD       PTSUNNY   58  52  80 CALM      30.20F
HIBBING        CLOUDY    52  49  89 CALM      30.23F
ALEXANDRIA     CLOUDY    55  54  96 E6        30.19S
SAINT CLOUD    SUNNY     61  53  75 VRB5      30.18F
MINNEAPOLIS    SUNNY     64  53  67 N6        30.16F
$$

  *****  WEATHER ACROSS SOUTH DAKOTA  *****

CITY           SKY/WX    TMP DP  RH WIND       PRES   REMARKS
SIOUX FALLS    CLOUDY    63  56  78 E6        30.15F
BROOKINGS      SUNNY     65  55  70 S6        30.14F
WATERTOWN      SUNNY     65  54  67 S12       30.14S
HURON          MOSUNNY   66  48  52 S14       30.10F
SISSETON         N/A     64  52  64 S9        30.13F
ABERDEEN       MOSUNNY   69  49  48 S16G22    30.09F
MITCHELL       MOSUNNY   65  49  56 SE9       30.12F
PIERRE         CLOUDY    62  46  55 SE15      30.01S
MOBRIDGE       MOSUNNY   67  47  48 S20       30.00S
RAPID CITY     SUNNY     73  48  41 NE5       30.01S
$$

  *****  SOME WEATHER IN NEARBY STATES *****

CITY           SKY/WX    TMP DP  RH WIND       PRES   REMARKS
GLASGOW MT     SUNNY     60  50  69 S10       29.94S
GREAT FALLS MT CLOUDY    64  43  46 SW10      29.89R
CHEYENNE WY    SUNNY     70  42  36 NW8       30.17F
SCOTTSBLUFF NE SUNNY     60  47  61 CALM      30.09S
OMAHA NE       CLOUDY    63  54  72 N7        30.14S
DES MOINES IA  CLOUDY    64  58  80 N8        30.10F
DAVENPORT IA   CLOUDY    62  60  93 N6        30.06S FOG
CHICAGO IL     RAIN      60  59  96 NE8       30.02S FOG
EAU CLAIRE WI  CLOUDY    61  53  75 NE6       30.15F
LA CROSSE WI   CLOUDY    64  56  75 NE7       30.12S
$$

  *****  SOME NATIONAL WEATHER *****

CITY           SKY/WX    TMP DP  RH WIND       PRES   REMARKS
LA GUARDIA NY  CLOUDY    63  57  81 NE18      30.21S
RALEIGH NC     MOSUNNY   78  63  59 SW7       30.08F
ATLANTA GA     MOSUNNY   74  49  41 W9        30.13S
NEW ORLEANS LA MOSUNNY   82  60  47 NE9       30.10S
OKLAHOMA CITY  MOSUNNY   70  52  52 S8        30.12F
ALBUQUERQUE NM MOSUNNY   65  54  67 S3        30.25S
SALT LAKE CITY MOSUNNY   67  48  50 SE13      30.06S
LOS ANGELES CA SUNNY     70  61  73 E5        30.00R
BOISE ID       MOSUNNY   66  31  27 NW13      30.00R
SEATTLE WA     PTSUNNY   53  44  71 SE8       29.94R
$$

*** WEATHER ACROSS MANITOBA...SASKATCHEWAN AND ONTARIO ***
                ***ONTARIO***

CITY           SKY/WX    TMP DP  RH WIND       PRES   REMARKS
GERALDTON      MOSUNNY   63  48  59 VRB2      30.28F
THUNDER BAY    PTSUNNY   59  52  77 SE3       30.24F
SIOUX LOOKOUT  MOSUNNY   61  48  63 SE3       30.25F
TORONTO        DRIZZLE   57  55  94 E6        30.13F
BIG TROUT LK   PTSUNNY   57  50  77 S5        30.20F
PICKLE LAKE    PTSUNNY   61  50  67 SW3       30.26F
DRYDEN         PTSUNNY   61  46  59 SE6       30.24S
KENORA         PTSUNNY   55  50  82 S7        30.21F
$$
                *** MANITOBA***

CITY           SKY/WX    TMP DP  RH WIND       PRES   REMARKS
BRANDON        MOSUNNY   61  50  67 SE8       30.08S
DAUPHIN        SUNNY     64  54  68 S3        30.06F
ISLAND LAKE    MOSUNNY   57  52  82 SE7       30.14
PILOT MOUND      N/A     63  50  63 SE15        N/A
THE PAS        FOG       50  50 100 N6        30.09R VSB 1
THOMPSON       FOG       48  48 100 NE14      30.15R VSB 3/4
WINNIPEG       PTSUNNY   61  50  67 S12       30.14F
LYNN LAKE      CLOUDY    41  41 100 NE12G22   30.23S
CHURCHILL      LGT RAIN  39  39 100 E8        30.40R
GILLAM         CLOUDY    45  43  93 NE10G21   30.21R FOG
$$
                ***SASKATCHEWAN***

CITY           SKY/WX    TMP DP  RH WIND       PRES   REMARKS
ESTEVAN        MOSUNNY   57  50  77 E8        30.00S
KINDERSLEY     FOG       50  50 100 E16       29.96S VSB 3/8
LLOYDMINSTER   LGT RAIN  48  46  93 E16       30.01R
PRINCE ALBERT  DRIZZLE   52  50  93 E7        30.07S FOG
REGINA         MOSUNNY   57  50  77 SE12      30.00S
YORKTON        SUNNY     61  52  72 SE8       30.03F  C1F1C2F2C3F3C4F4C5F5C6F6C7F7C8F8C9F9CaFaCbFbCcFcCdFdCe!


USA.gov is the U.S. government's official web portal to all federal, state and local government web resources and services.